When you browse on this site, cookies collect data to enhance your experience and personalize the content and advertising you see.
Visit our Privacy Policy to learn more. By continuing to use the site, you agree to this use of cookies and data.
  • In Österreich
  • Länderverzeichnis
  • Für 7 Tage
  • Wassertemperatur
  • Wetterkarte
  • News
  • Widgets
  • user-avatar
    Anmelden

    Stündliche Wetter Bjala

    Heute, 26 Februar, Mittwoch

    Zeit Temperatur Niederschläge Wind Luftdruck Luftfeuchtigkeit
    00:00 +7°C° 0 mm 5 m/S 746 mmHg 64%
    01:00 +6°C° 0 mm 5 m/S 746 mmHg 68%
    02:00 +6°C° 0 mm 5 m/S 745 mmHg 71%
    03:00 +6°C° 0 mm 5 m/S 745 mmHg 72%
    04:00 +6°C° 0 mm 5 m/S 744 mmHg 73%
    05:00 +6°C° 0 mm 5 m/S 744 mmHg 74%
    06:00 +6°C° 0 mm 5 m/S 744 mmHg 75%
    07:00 +6°C° 0 mm 5 m/S 743 mmHg 75%
    08:00 +6°C° 0 mm 4 m/S 743 mmHg 75%
    09:00 +8°C° 0 mm 5 m/S 743 mmHg 70%
    10:00 +10°C° 0 mm 5 m/S 743 mmHg 64%
    11:00 +13°C° 0 mm 5 m/S 743 mmHg 58%
    12:00 +14°C° 0 mm 5 m/S 743 mmHg 58%
    13:00 +15°C° 0 mm 5 m/S 742 mmHg 57%
    14:00 +16°C° 0 mm 6 m/S 742 mmHg 56%
    15:00 +16°C° 0 mm 6 m/S 742 mmHg 60%
    16:00 +15°C° 0 mm 6 m/S 741 mmHg 63%
    17:00 +15°C° 0 mm 7 m/S 741 mmHg 66%
    18:00 +14°C° 0 mm 7 m/S 741 mmHg 70%
    19:00 +12°C° 0 mm 7 m/S 741 mmHg 73%
    20:00 +11°C° 0 mm 6 m/S 741 mmHg 77%
    21:00 +11°C° 0 mm 7 m/S 741 mmHg 77%
    22:00 +11°C° 0 mm 8 m/S 740 mmHg 77%
    23:00 +11°C° 0 mm 8 m/S 740 mmHg 76%

    Morgen, 27 Februar, Donnerstag

    Zeit Temperatur Niederschläge Wind Luftdruck Luftfeuchtigkeit
    00:00 +11°C° 0 mm 8 m/S 740 mmHg 78%
    01:00 +11°C° 0 mm 8 m/S 740 mmHg 79%
    02:00 +11°C° 0 mm 8 m/S 740 mmHg 81%
    03:00 +11°C° 0 mm 8 m/S 740 mmHg 80%
    04:00 +11°C° 0 mm 8 m/S 740 mmHg 80%
    05:00 +10°C° 0 mm 8 m/S 740 mmHg 79%
    06:00 +10°C° 0 mm 8 m/S 740 mmHg 77%
    07:00 +11°C° 0 mm 7 m/S 740 mmHg 75%
    08:00 +11°C° 0 mm 7 m/S 740 mmHg 73%
    09:00 +12°C° 0 mm 8 m/S 740 mmHg 66%
    10:00 +13°C° 0 mm 9 m/S 740 mmHg 58%
    11:00 +16°C° 0 mm 9 m/S 740 mmHg 51%
    12:00 +13°C° 0.3 mm 10 m/S 740 mmHg 57%
    13:00 +11°C° 0.3 mm 10 m/S 740 mmHg 64%
    14:00 +8°C° 0.3 mm 10 m/S 740 mmHg 70%
    15:00 +8°C° 0.1 mm 9 m/S 740 mmHg 67%
    16:00 +9°C° 0.1 mm 7 m/S 741 mmHg 65%
    17:00 +9°C° 0.1 mm 5 m/S 741 mmHg 63%
    18:00 +8°C° 0 mm 6 m/S 742 mmHg 61%
    19:00 +6°C° 0 mm 7 m/S 742 mmHg 60%
    20:00 +4°C° 0 mm 7 m/S 743 mmHg 59%
    21:00 +4°C° 0 mm 8 m/S 744 mmHg 62%
    22:00 +3°C° 0 mm 9 m/S 744 mmHg 65%
    23:00 +2°C° 0 mm 10 m/S 745 mmHg 68%

    übermorgen, 28 Februar, Freitag

    Zeit Temperatur Niederschläge Wind Luftdruck Luftfeuchtigkeit
    00:00 +2°C° 0 mm 8 m/S 746 mmHg 72%
    01:00 +2°C° 0 mm 7 m/S 746 mmHg 75%
    02:00 +2°C° 0 mm 5 m/S 747 mmHg 78%
    03:00 +2°C° 0 mm 5 m/S 747 mmHg 77%
    04:00 +1°C° 0 mm 4 m/S 747 mmHg 77%
    05:00 +1°C° 0 mm 4 m/S 748 mmHg 76%
    06:00 +1°C° 0 mm 4 m/S 748 mmHg 74%
    07:00 +2°C° 0 mm 3 m/S 749 mmHg 72%
    08:00 +3°C° 0 mm 3 m/S 749 mmHg 70%
    09:00 +4°C° 0 mm 4 m/S 749 mmHg 63%
    10:00 +6°C° 0 mm 4 m/S 749 mmHg 55%
    11:00 +7°C° 0 mm 5 m/S 749 mmHg 47%
    12:00 +8°C° 0 mm 5 m/S 748 mmHg 45%
    13:00 +8°C° 0 mm 6 m/S 748 mmHg 43%
    14:00 +9°C° 0 mm 6 m/S 747 mmHg 41%
    15:00 +9°C° 0 mm 6 m/S 747 mmHg 45%
    16:00 +9°C° 0 mm 5 m/S 747 mmHg 50%
    17:00 +8°C° 0 mm 5 m/S 747 mmHg 55%
    18:00 +7°C° 0 mm 5 m/S 747 mmHg 60%
    19:00 +7°C° 0 mm 5 m/S 748 mmHg 65%
    20:00 +6°C° 0 mm 5 m/S 748 mmHg 70%
    21:00 +5°C° 0 mm 5 m/S 748 mmHg 70%
    22:00 +5°C° 0 mm 5 m/S 748 mmHg 69%
    23:00 +5°C° 0 mm 5 m/S 749 mmHg 69%

    29 Februar, Samstag

    Zeit Temperatur Niederschläge Wind Luftdruck Luftfeuchtigkeit
    00:00 +3°C° 0 mm 5 m/S 749 mmHg 67%
    01:00 +3°C° 0 mm 6 m/S 749 mmHg 64%
    02:00 +2°C° 0 mm 7 m/S 749 mmHg 62%
    03:00 +2°C° 0 mm 7 m/S 749 mmHg 62%
    04:00 +1°C° 0 mm 8 m/S 750 mmHg 63%
    05:00 0°C° 0 mm 8 m/S 750 mmHg 63%
    06:00 0°C° 0 mm 8 m/S 750 mmHg 63%
    07:00 0°C° 0 mm 8 m/S 751 mmHg 64%
    08:00 0°C° 0 mm 8 m/S 752 mmHg 64%
    09:00 +3°C° 0 mm 7 m/S 752 mmHg 58%
    10:00 +4°C° 0 mm 6 m/S 753 mmHg 52%
    11:00 +7°C° 0 mm 6 m/S 753 mmHg 46%
    12:00 +7°C° 0 mm 5 m/S 753 mmHg 43%
    13:00 +8°C° 0 mm 4 m/S 753 mmHg 39%
    14:00 +10°C° 0 mm 4 m/S 753 mmHg 36%
    15:00 +10°C° 0 mm 3 m/S 753 mmHg 37%
    16:00 +10°C° 0 mm 3 m/S 753 mmHg 37%
    17:00 +9°C° 0 mm 3 m/S 753 mmHg 38%
    18:00 +8°C° 0 mm 2 m/S 753 mmHg 41%
    19:00 +7°C° 0 mm 2 m/S 753 mmHg 44%
    20:00 +7°C° 0 mm 1 m/S 754 mmHg 47%
    21:00 +6°C° 0 mm 2 m/S 754 mmHg 48%
    22:00 +5°C° 0 mm 2 m/S 754 mmHg 49%
    23:00 +5°C° 0 mm 2 m/S 754 mmHg 49%

    1 März, Sonntag

    Zeit Temperatur Niederschläge Wind Luftdruck Luftfeuchtigkeit
    00:00 +5°C° 0 mm 2 m/S 754 mmHg 51%
    01:00 +3°C° 0 mm 3 m/S 754 mmHg 53%
    02:00 +3°C° 0 mm 3 m/S 753 mmHg 54%
    03:00 +3°C° 0 mm 3 m/S 753 mmHg 58%
    04:00 +3°C° 0 mm 3 m/S 753 mmHg 62%
    05:00 +3°C° 0 mm 4 m/S 753 mmHg 66%
    06:00 +3°C° 0 mm 4 m/S 753 mmHg 67%
    07:00 +3°C° 0 mm 4 m/S 753 mmHg 67%
    08:00 +4°C° 0 mm 4 m/S 753 mmHg 68%
    09:00 +5°C° 0 mm 5 m/S 753 mmHg 63%
    10:00 +7°C° 0 mm 5 m/S 753 mmHg 57%
    11:00 +9°C° 0 mm 6 m/S 753 mmHg 52%
    12:00 +10°C° 0 mm 6 m/S 753 mmHg 52%
    13:00 +10°C° 0 mm 7 m/S 752 mmHg 52%
    14:00 +11°C° 0 mm 7 m/S 752 mmHg 52%
    15:00 +11°C° 0 mm 7 m/S 751 mmHg 56%
    16:00 +10°C° 0 mm 7 m/S 751 mmHg 60%
    17:00 +9°C° 0 mm 6 m/S 751 mmHg 64%
    18:00 +9°C° 0 mm 6 m/S 751 mmHg 67%
    19:00 +8°C° 0 mm 6 m/S 751 mmHg 70%
    20:00 +7°C° 0 mm 6 m/S 751 mmHg 73%
    21:00 +7°C° 0 mm 6 m/S 751 mmHg 74%
    22:00 +7°C° 0 mm 6 m/S 751 mmHg 75%
    23:00 +6°C° 0 mm 5 m/S 750 mmHg 75%

    2 März, Montag

    Zeit Temperatur Niederschläge Wind Luftdruck Luftfeuchtigkeit
    00:00 +6°C° 0 mm 5 m/S 750 mmHg 80%
    01:00 +6°C° 0 mm 5 m/S 750 mmHg 85%
    02:00 +6°C° 0 mm 5 m/S 749 mmHg 90%
    03:00 +6°C° 0 mm 5 m/S 749 mmHg 91%
    04:00 +6°C° 0 mm 5 m/S 748 mmHg 92%
    05:00 +6°C° 0 mm 5 m/S 748 mmHg 93%
    06:00 +7°C° 0 mm 5 m/S 748 mmHg 92%
    07:00 +7°C° 0 mm 5 m/S 748 mmHg 91%
    08:00 +8°C° 0 mm 5 m/S 747 mmHg 90%
    09:00 +9°C° 0 mm 5 m/S 747 mmHg 83%
    10:00 +11°C° 0 mm 6 m/S 747 mmHg 76%
    11:00 +14°C° 0 mm 6 m/S 747 mmHg 69%
    12:00 +15°C° 0 mm 5 m/S 747 mmHg 64%
    13:00 +15°C° 0 mm 4 m/S 746 mmHg 58%
    14:00 +17°C° 0 mm 4 m/S 746 mmHg 52%
    15:00 +17°C° 0 mm 3 m/S 746 mmHg 55%
    16:00 +16°C° 0 mm 3 m/S 746 mmHg 58%
    17:00 +16°C° 0 mm 2 m/S 746 mmHg 61%
    18:00 +14°C° 0 mm 3 m/S 746 mmHg 64%
    19:00 +13°C° 0 mm 3 m/S 747 mmHg 68%
    20:00 +12°C° 0 mm 3 m/S 747 mmHg 72%
    21:00 +12°C° 0 mm 2 m/S 747 mmHg 73%
    22:00 +12°C° 0 mm 2 m/S 747 mmHg 73%
    23:00 +12°C° 0 mm 2 m/S 748 mmHg 74%
    Mehr zeigen